Back to catalog

STARLINK-5202

AliveCommunicationsVLEO
NORAD 54761·PAYLOAD·🇺🇸 United States

Launched Dec 17, 2022 from Cape Canaveral Space Force Station

Loading…

Next Passes (next 24 hours)

TLE

FreshSource: CelesTrak SupGP

Epoch: Sep 14, 2026, 21:46 UTC

1 54761C 22175D   26257.90743056  .00025241  00000+0  81180-3 0  2577
2 54761  53.1572 263.8676 0001378  83.9767 144.9420 15.31684971    15

Track STARLINK-5202 in real time with AllMySat

Download on the App Store